STARLINK-11284 [DTC]

Last updated on Fri Oct 04 2024 00:02:04 GMT+0000 (Coordinated Universal Time)

1 61052U 24164C 24277.50581899 .00014564 00000+0 92801-4 0 9991 2 61052 53.1571 6.2187 0001255 109.1200 250.9956 15.76735451 3393
UTC large
Height (km)
Speed (km/s)
/
Latitude / Longitude
Inclination (degrees)
Orbital Period (minutes)
Azimuth
Elevation
Range (km)
Doppler Factor

Next 0 passes for location: London (51.5072 / 0.1276)

Sorry there are no passes over London.